Location: Sanikiluaq
(56.5408°N, 79.2232°W)
Time: 14:52:45
(UTC-04:00)

ACS3 Solar Sail - Visible Passes

Search period start: 08 June 2026 00:00
Search period end: 18 June 2026 00:00
Orbit: 878 x 952 km, 97.2° (Epoch: 8 June)

Date Brightness Start Highest point End Pass type
(mag) Time Alt. Az. Time Alt. Az. Time Alt. Az.
8 Jun 3.4 00:22:45 10° NE 00:26:49 20° E 00:30:56 10° SE visible
8 Jun 1.7 02:04:11 10° NNE 02:09:55 85° ESE 02:15:18 12° SSW visible
9 Jun 3.2 00:29:35 10° NE 00:33:58 22° E 00:38:23 10° SE visible
9 Jun 1.7 02:11:13 10° NNE 02:16:57 86° WNW 02:22:26 12° SSW visible
10 Jun 3.1 00:36:25 10° NNE 00:41:04 25° E 00:45:44 10° SE visible
10 Jun 1.7 02:18:12 10° NNE 02:23:56 78° WNW 02:29:31 11° SSW visible
11 Jun 3.0 00:43:13 10° NNE 00:48:05 28° E 00:53:00 10° SE visible
11 Jun 1.8 02:25:08 10° N 02:30:50 70° WNW 02:36:33 10° SSW visible
12 Jun 2.8 00:49:58 10° NNE 00:55:03 31° E 01:00:08 10° SSE visible
12 Jun 1.9 02:32:00 10° N 02:37:40 63° WNW 02:43:24 10° SSW visible
13 Jun 2.7 00:56:42 10° NNE 01:01:56 35° E 01:07:04 11° SSE visible
13 Jun 2.1 02:38:51 10° N 02:44:27 57° WNW 02:50:07 10° SW visible
14 Jun 2.5 01:03:24 10° NNE 01:08:46 39° E 01:13:56 11° SSE visible
14 Jun 2.2 02:45:38 10° N 02:51:10 51° WNW 02:56:47 10° SW visible
15 Jun 2.4 01:10:03 10° NNE 01:15:32 43° E 01:20:44 12° SSE visible
15 Jun 2.3 02:52:23 10° N 02:57:49 46° WNW 03:03:21 10° SW visible
15 Jun 3.9 23:37:37 10° ENE 23:38:32 10° ENE 23:39:27 10° E visible
16 Jun 2.2 01:16:39 10° NNE 01:22:14 48° E 01:27:28 12° S visible
16 Jun 2.5 02:59:04 10° N 03:04:26 42° WNW 03:09:52 10° SW visible
16 Jun 3.8 23:43:12 10° NE 23:45:18 12° ENE 23:47:24 10° E visible
17 Jun 2.1 01:23:13 10° NNE 01:28:52 54° E 01:34:09 12° S visible
17 Jun 2.6 03:05:42 10° N 03:10:58 38° WNW 03:16:18 10° SW visible
17 Jun 3.7 23:49:14 10° NE 23:52:00 13° ENE 23:54:47 10° ESE visible
